Simultaneous Nadir Overpasses (SNOs) Predictions

Prediction of SNOs between FY3D and NOAA-19 Satellite Orbit:

Table of predicted SNOs for the next 14.0 days since TLE Epoch: 5/11/2019
Index Date (FY3D) Time (FY3D) Lat,Lon (FY3D) SZA (FY3D ) Date (NOAA-19) Time (NOAA-19) Lat,Lon (NOAA-19) SZA (NOAA-19 ) Distance(km) Time Diff (sec)
1 05/15/2019 19:26:34 -80.14, 29.52 116.63 05/15/2019 19:25:22 -80.16, 29.41 116.57 3.17 72
2 05/15/2019 20:17:20 80.16,-163.40 63.41 05/15/2019 20:16:24 80.15,-163.38 63.43 0.65 56
3 05/15/2019 21:08:04 -80.16, 3.90 116.60 05/15/2019 21:07:23 -80.15, 3.87 116.59 0.79 41
4 05/15/2019 21:58:49 80.15, 171.28 63.38 05/15/2019 21:58:24 80.17, 171.40 63.39 3.29 25
5 05/15/2019 22:49:33 -80.15, -21.42 116.63 05/15/2019 22:49:23 -80.17, -21.35 116.62 2.47 10
6 05/15/2019 23:40:18 80.15, 145.96 63.35 05/15/2019 23:40:25 80.17, 145.86 63.38 3.13 7
7 05/16/2019 00:31:03 -80.18, -47.04 116.60 05/16/2019 00:31:24 -80.17, -46.89 116.63 3.04 21
8 05/16/2019 01:21:48 80.17, 120.33 63.38 05/16/2019 01:22:26 80.17, 120.31 63.37 0.59 38
9 05/16/2019 02:12:32 -80.17, -72.36 116.63 05/16/2019 02:13:25 -80.17, -72.43 116.65 1.35 53




NCC Satellite Simultaneous Nadir Overpasses (SNOs) Prediction Service
